Time,TemperatureF,DewpointF,PressureIn,WindDirection,WindDirectionDegrees,WindSpeedMPH,WindSpeedGustMPH,Humidity,HourlyPrecipIn,Conditions,Clouds,dailyrainin,SoftwareType,DateUTC
2013-02-05 06:45:00,15.8,7.4,30.15,NNW,338,0.0,1.0,69,0.00,,---,0.00,VWS V14.01,2013-02-05 13:45:00,
2013-02-05 06:58:00,16.5,8.1,30.15,NNW,327,0.0,0.0,69,0.00,,---,0.00,VWS V14.01,2013-02-05 13:58:00,
2013-02-05 07:03:00,17.2,8.8,30.14,NNW,327,0.0,0.0,69,0.00,,---,0.00,VWS V14.01,2013-02-05 14:03:00,
2013-02-05 07:08:00,18.0,9.2,30.15,NNW,327,0.0,0.0,68,0.00,,---,0.00,VWS V14.01,2013-02-05 14:08:00,
2013-02-05 07:13:00,17.6,8.2,30.16,NNW,327,0.0,0.0,66,0.00,,---,0.00,VWS V14.01,2013-02-05 14:13:00,
2013-02-05 07:18:00,17.5,8.4,30.16,NNW,327,4.0,5.0,67,0.00,,---,0.00,VWS V14.01,2013-02-05 14:18:00,
2013-02-05 07:23:00,17.4,8.3,30.18,NNW,327,2.0,2.0,67,0.00,,---,0.00,VWS V14.01,2013-02-05 14:23:00,
2013-02-05 07:28:00,17.3,8.2,30.18,NNW,327,1.0,4.0,67,0.00,,---,0.00,VWS V14.01,2013-02-05 14:28:00,
2013-02-05 07:33:00,17.1,7.7,30.19,NNW,327,0.0,0.0,66,0.00,,---,0.00,VWS V14.01,2013-02-05 14:33:00,
2013-02-05 07:38:00,17.0,7.6,30.19,NNW,327,0.0,0.0,66,0.00,,---,0.00,VWS V14.01,2013-02-05 14:38:00,
2013-02-05 07:43:00,17.7,8.6,30.18,NNW,327,0.0,0.0,67,0.00,,---,0.00,VWS V14.01,2013-02-05 14:43:00,
2013-02-05 07:48:00,19.2,9.7,30.17,NNW,327,0.0,0.0,66,0.00,,---,0.00,VWS V14.01,2013-02-05 14:48:00,
2013-02-05 07:53:00,20.6,10.0,30.16,NNW,327,0.0,0.0,63,0.00,,---,0.00,VWS V14.01,2013-02-05 14:53:00,
2013-02-05 07:58:00,22.2,11.2,30.15,NNW,327,0.0,0.0,62,0.00,,---,0.00,VWS V14.01,2013-02-05 14:58:00,
2013-02-05 08:03:00,23.5,11.7,30.15,NNW,327,0.0,0.0,60,0.00,,---,0.00,VWS V14.01,2013-02-05 15:03:00,
2013-02-05 08:08:00,24.4,11.8,30.15,NNW,327,0.0,0.0,58,0.00,,---,0.00,VWS V14.01,2013-02-05 15:08:00,
2013-02-05 08:13:00,25.3,12.2,30.15,NNW,327,0.0,0.0,57,0.00,,---,0.00,VWS V14.01,2013-02-05 15:13:00,
2013-02-05 08:18:00,25.6,12.1,30.14,NNW,327,0.0,0.0,56,0.00,,---,0.00,VWS V14.01,2013-02-05 15:18:00,
2013-02-05 08:23:00,25.5,12.4,30.14,NNW,327,0.0,0.0,57,0.00,,---,0.00,VWS V14.01,2013-02-05 15:23:00,
2013-02-05 08:28:00,25.7,12.6,30.14,NNW,327,0.0,0.0,57,0.00,,---,0.00,VWS V14.01,2013-02-05 15:28:00,
2013-02-05 08:33:00,25.8,13.1,30.14,NNW,327,0.0,0.0,58,0.00,,---,0.00,VWS V14.01,2013-02-05 15:33:00,
2013-02-05 08:38:00,27.0,13.8,30.14,NNW,327,0.0,1.0,57,0.00,,---,0.00,VWS V14.01,2013-02-05 15:38:00,
2013-02-05 08:43:00,27.7,14.5,30.12,NNW,327,0.0,2.0,57,0.00,,---,0.00,VWS V14.01,2013-02-05 15:43:00,
2013-02-05 08:48:00,28.0,15.1,30.12,NNW,327,3.0,5.0,58,0.00,,---,0.00,VWS V14.01,2013-02-05 15:48:00,
2013-02-05 08:53:00,28.7,15.8,30.12,NNW,327,0.0,1.0,58,0.00,,---,0.00,VWS V14.01,2013-02-05 15:53:00,
2013-02-05 08:58:00,30.4,15.3,30.11,NNW,327,0.0,0.0,53,0.00,,---,0.00,VWS V14.01,2013-02-05 15:58:00,
2013-02-05 09:03:00,31.9,14.4,30.09,NNW,327,0.0,0.0,48,0.00,,---,0.00,VWS V14.01,2013-02-05 16:03:00,
2013-02-05 09:08:00,32.8,13.8,30.14,NNW,327,0.0,2.0,45,0.00,,---,0.00,VWS V14.01,2013-02-05 16:08:00,
2013-02-05 09:13:00,33.9,13.8,30.12,NNW,327,5.0,6.0,43,0.00,,---,0.00,VWS V14.01,2013-02-05 16:13:00,
2013-02-05 09:18:00,35.0,14.2,30.11,NNW,327,0.0,1.0,42,0.00,,---,0.00,VWS V14.01,2013-02-05 16:18:00,
2013-02-05 09:23:00,36.4,13.2,30.09,NNW,327,0.0,5.0,38,0.00,,---,0.00,VWS V14.01,2013-02-05 16:23:00,
2013-02-05 09:28:00,37.1,13.9,30.09,NNW,327,0.0,3.0,38,0.00,,---,0.00,VWS V14.01,2013-02-05 16:28:00,
2013-02-05 09:33:00,37.5,13.0,30.08,NNW,327,3.0,7.0,36,0.00,,---,0.00,VWS V14.01,2013-02-05 16:33:00,
2013-02-05 09:38:00,37.6,13.7,30.08,NNW,327,0.0,2.0,37,0.00,,---,0.00,VWS V14.01,2013-02-05 16:38:00,
2013-02-05 09:43:00,38.1,13.5,30.08,NNW,327,0.0,4.0,36,0.00,,---,0.00,VWS V14.01,2013-02-05 16:43:00,
2013-02-05 09:48:00,38.4,13.8,30.08,NNW,327,0.0,3.0,36,0.00,,---,0.00,VWS V14.01,2013-02-05 16:48:00,
2013-02-05 09:53:00,38.7,13.4,30.08,NNW,327,0.0,0.0,35,0.00,,---,0.00,VWS V14.01,2013-02-05 16:53:00,
2013-02-05 09:58:00,38.9,13.6,30.08,NNW,327,0.0,1.0,35,0.00,,---,0.00,VWS V14.01,2013-02-05 16:58:00,
2013-02-05 10:03:00,39.1,13.1,30.08,NNW,327,0.0,0.0,34,0.00,,---,0.00,VWS V14.01,2013-02-05 17:03:00,
2013-02-05 10:08:00,39.3,13.3,30.10,NNW,327,0.0,1.0,34,0.00,,---,0.00,VWS V14.01,2013-02-05 17:08:00,
2013-02-05 10:13:00,39.4,12.7,30.10,NNW,327,0.0,2.0,33,0.00,,---,0.00,VWS V14.01,2013-02-05 17:13:00,
2013-02-05 10:18:00,39.5,13.5,30.08,NNW,327,0.0,0.0,34,0.00,,---,0.00,VWS V14.01,2013-02-05 17:18:00,
2013-02-05 10:23:00,39.7,13.0,30.08,NNW,327,0.0,1.0,33,0.00,,---,0.00,VWS V14.01,2013-02-05 17:23:00,
2013-02-05 10:28:00,40.0,13.2,30.08,NNW,327,0.0,5.0,33,0.00,,---,0.00,VWS V14.01,2013-02-05 17:28:00,
2013-02-05 10:33:00,40.4,12.9,30.08,NNW,327,2.0,5.0,32,0.00,,---,0.00,VWS V14.01,2013-02-05 17:33:00,
2013-02-05 10:38:00,40.5,13.0,30.08,NNW,327,0.0,4.0,32,0.00,,---,0.00,VWS V14.01,2013-02-05 17:38:00,
2013-02-05 10:43:00,40.7,13.1,30.07,NNW,327,0.0,1.0,32,0.00,,---,0.00,VWS V14.01,2013-02-05 17:43:00,
2013-02-05 10:48:00,41.1,12.8,30.07,NNW,327,1.0,5.0,31,0.00,,---,0.00,VWS V14.01,2013-02-05 17:48:00,
2013-02-05 10:53:00,41.2,12.9,30.07,NNW,327,0.0,1.0,31,0.00,,---,0.00,VWS V14.01,2013-02-05 17:53:00,
2013-02-05 10:58:00,41.6,13.2,30.05,NNW,327,0.0,2.0,31,0.00,,---,0.00,VWS V14.01,2013-02-05 17:58:00,
2013-02-05 11:03:00,41.9,13.5,30.05,NNW,327,0.0,0.0,31,0.00,,---,0.00,VWS V14.01,2013-02-05 18:03:00,
2013-02-05 11:08:00,42.6,13.4,30.04,NNW,327,0.0,1.0,30,0.00,,---,0.00,VWS V14.01,2013-02-05 18:08:00,
2013-02-05 11:13:00,43.3,14.0,30.04,NNW,327,2.0,2.0,30,0.00,,---,0.00,VWS V14.01,2013-02-05 18:13:00,
2013-02-05 11:18:00,43.6,13.5,30.04,NNW,327,0.0,1.0,29,0.00,,---,0.00,VWS V14.01,2013-02-05 18:18:00,
2013-02-05 11:23:00,43.7,13.5,30.04,NNW,327,2.0,5.0,29,0.00,,---,0.00,VWS V14.01,2013-02-05 18:23:00,
2013-02-05 11:28:00,44.0,13.8,30.03,NNW,327,5.0,5.0,29,0.00,,---,0.00,VWS V14.01,2013-02-05 18:28:00,
2013-02-05 11:33:00,44.5,13.4,30.01,NNW,327,3.0,6.0,28,0.00,,---,0.00,VWS V14.01,2013-02-05 18:33:00,
2013-02-05 11:38:00,44.9,13.0,30.01,NNW,327,0.0,2.0,27,0.00,,---,0.00,VWS V14.01,2013-02-05 18:38:00,
2013-02-05 11:43:00,45.2,13.2,30.01,NNW,327,0.0,2.0,27,0.00,,---,0.00,VWS V14.01,2013-02-05 18:43:00,
2013-02-05 11:48:00,45.6,13.6,30.00,NNW,327,0.0,4.0,27,0.00,,---,0.00,VWS V14.01,2013-02-05 18:48:00,
2013-02-05 11:53:00,45.8,13.7,30.00,NNW,327,3.0,8.0,27,0.00,,---,0.00,VWS V14.01,2013-02-05 18:53:00,
2013-02-05 11:58:00,45.8,12.9,30.00,NNW,327,0.0,6.0,26,0.00,,---,0.00,VWS V14.01,2013-02-05 18:58:00,
2013-02-05 12:03:00,45.8,13.7,29.99,NNW,327,5.0,7.0,27,0.00,,---,0.00,VWS V14.01,2013-02-05 19:03:00,
2013-02-05 12:09:00,46.0,13.1,30.04,NNW,327,0.0,5.0,26,0.00,,---,0.00,VWS V14.01,2013-02-05 19:09:00,
2013-02-05 12:14:00,47.0,13.9,30.03,NNW,327,0.0,4.0,26,0.00,,---,0.00,VWS V14.01,2013-02-05 19:14:00,
2013-02-05 12:19:00,47.7,13.6,30.02,NNW,327,1.0,5.0,25,0.00,,---,0.00,VWS V14.01,2013-02-05 19:19:00,
2013-02-05 12:24:00,47.4,14.2,30.03,NNW,327,0.0,3.0,26,0.00,,---,0.00,VWS V14.01,2013-02-05 19:24:00,
2013-02-05 12:29:00,47.8,13.7,30.01,NNW,327,0.0,4.0,25,0.00,,---,0.00,VWS V14.01,2013-02-05 19:29:00,
2013-02-05 12:34:00,48.3,14.1,30.00,NNW,327,0.0,6.0,25,0.00,,---,0.00,VWS V14.01,2013-02-05 19:34:00,
2013-02-05 12:39:00,48.4,13.3,30.00,NNW,327,0.0,3.0,24,0.00,,---,0.00,VWS V14.01,2013-02-05 19:39:00,
2013-02-05 12:44:00,48.9,13.7,29.99,NNW,327,1.0,2.0,24,0.00,,---,0.00,VWS V14.01,2013-02-05 19:44:00,
2013-02-05 12:49:00,49.2,14.0,29.99,NNW,327,2.0,5.0,24,0.00,,---,0.00,VWS V14.01,2013-02-05 19:49:00,
2013-02-05 12:54:00,49.4,13.2,29.99,NNW,327,0.0,0.0,23,0.00,,---,0.00,VWS V14.01,2013-02-05 19:54:00,
2013-02-05 12:59:00,49.9,13.6,29.96,NNW,327,2.0,2.0,23,0.00,,---,0.00,VWS V14.01,2013-02-05 19:59:00,
2013-02-05 13:04:00,50.3,13.9,29.96,NNW,327,0.0,5.0,23,0.00,,---,0.00,VWS V14.01,2013-02-05 20:04:00,
2013-02-05 13:09:00,50.8,14.4,29.95,NNW,327,1.0,5.0,23,0.00,,---,0.00,VWS V14.01,2013-02-05 20:09:00,
2013-02-05 13:14:00,50.8,14.4,29.95,NNW,327,4.0,7.0,23,0.00,,---,0.00,VWS V14.01,2013-02-05 20:14:00,
2013-02-05 13:19:00,50.9,14.4,29.94,NNW,327,2.0,6.0,23,0.00,,---,0.00,VWS V14.01,2013-02-05 20:19:00,
2013-02-05 13:24:00,51.5,14.9,29.94,NNW,327,5.0,7.0,23,0.00,,---,0.00,VWS V14.01,2013-02-05 20:24:00,
2013-02-05 13:29:00,51.3,13.8,29.94,NNW,327,9.0,9.0,22,0.00,,---,0.00,VWS V14.01,2013-02-05 20:29:00,
2013-02-05 13:34:00,51.7,15.1,29.94,NNW,327,0.0,8.0,23,0.00,,---,0.00,VWS V14.01,2013-02-05 20:34:00,
2013-02-05 13:39:00,52.6,14.9,29.92,NNW,327,0.0,5.0,22,0.00,,---,0.00,VWS V14.01,2013-02-05 20:39:00,
2013-02-05 13:44:00,53.2,15.4,29.91,NNW,327,5.0,8.0,22,0.00,,---,0.00,VWS V14.01,2013-02-05 20:44:00,
2013-02-05 13:49:00,53.6,15.7,29.91,NNW,327,0.0,9.0,22,0.00,,---,0.00,VWS V14.01,2013-02-05 20:49:00,
2013-02-05 13:54:00,53.7,15.8,29.90,NNW,327,0.0,2.0,22,0.00,,---,0.00,VWS V14.01,2013-02-05 20:54:00,
2013-02-05 13:59:00,54.1,16.1,29.90,NNW,327,0.0,8.0,22,0.00,,---,0.00,VWS V14.01,2013-02-05 20:59:00,
2013-02-05 14:04:00,54.7,16.6,29.88,NNW,327,0.0,8.0,22,0.00,,---,0.00,VWS V14.01,2013-02-05 21:04:00,
2013-02-05 14:09:00,54.7,15.6,29.90,NW,321,0.0,7.0,21,0.00,,---,0.00,VWS V14.01,2013-02-05 21:09:00,
2013-02-05 14:14:00,53.8,15.9,29.91,NW,321,0.0,3.0,22,0.00,,---,0.00,VWS V14.01,2013-02-05 21:14:00,
2013-02-05 14:19:00,54.1,16.1,29.91,NW,321,0.0,2.0,22,0.00,,---,0.00,VWS V14.01,2013-02-05 21:19:00,
2013-02-05 14:24:00,55.0,15.8,29.89,NW,321,1.0,6.0,21,0.00,,---,0.00,VWS V14.01,2013-02-05 21:24:00,
2013-02-05 14:29:00,54.8,16.7,29.89,NW,314,1.0,8.0,22,0.00,,---,0.00,VWS V14.01,2013-02-05 21:29:00,
2013-02-05 14:34:00,54.9,15.7,29.89,NW,314,0.0,7.0,21,0.00,,---,0.00,VWS V14.01,2013-02-05 21:34:00,
2013-02-05 14:39:00,55.2,14.9,29.90,NW,304,4.0,9.0,20,0.00,,---,0.00,VWS V14.01,2013-02-05 21:39:00,
2013-02-05 14:44:00,55.6,14.0,29.89,WNW,302,7.0,10.0,19,0.00,,---,0.00,VWS V14.01,2013-02-05 21:44:00,
2013-02-05 14:49:00,55.4,13.9,29.89,WNW,287,0.0,10.0,19,0.00,,---,0.00,VWS V14.01,2013-02-05 21:49:00,
2013-02-05 14:54:00,55.6,14.0,29.89,WNW,287,4.0,7.0,19,0.00,,---,0.00,VWS V14.01,2013-02-05 21:54:00,
2013-02-05 14:59:00,56.0,14.3,29.89,WNW,286,1.0,8.0,19,0.00,,---,0.00,VWS V14.01,2013-02-05 21:59:00,
2013-02-05 15:04:00,56.4,14.7,29.89,WNW,286,4.0,6.0,19,0.00,,---,0.00,VWS V14.01,2013-02-05 22:04:00,
2013-02-05 15:09:00,56.2,14.5,29.90,WNW,284,1.0,6.0,19,0.00,,---,0.00,VWS V14.01,2013-02-05 22:09:00,
2013-02-05 15:14:00,56.2,14.5,29.90,WNW,284,0.0,6.0,19,0.00,,---,0.00,VWS V14.01,2013-02-05 22:14:00,
2013-02-05 15:19:00,56.0,14.3,29.90,West,278,0.0,11.0,19,0.00,,---,0.00,VWS V14.01,2013-02-05 22:19:00,
2013-02-05 15:24:00,55.7,14.1,29.90,West,266,1.0,11.0,19,0.00,,---,0.00,VWS V14.01,2013-02-05 22:24:00,
2013-02-05 15:29:00,55.5,13.9,29.90,West,265,4.0,7.0,19,0.00,,---,0.00,VWS V14.01,2013-02-05 22:29:00,
2013-02-05 15:34:00,55.4,13.9,29.90,West,266,4.0,8.0,19,0.00,,---,0.00,VWS V14.01,2013-02-05 22:34:00,
2013-02-05 15:39:00,55.5,13.9,29.90,West,265,0.0,7.0,19,0.00,,---,0.00,VWS V14.01,2013-02-05 22:39:00,
2013-02-05 15:44:00,55.2,13.7,29.90,West,266,0.0,4.0,19,0.00,,---,0.00,VWS V14.01,2013-02-05 22:44:00,
2013-02-05 15:49:00,55.5,13.9,29.90,West,266,1.0,5.0,19,0.00,,---,0.00,VWS V14.01,2013-02-05 22:49:00,
2013-02-05 15:54:00,55.2,14.9,29.91,West,266,5.0,7.0,20,0.00,,---,0.00,VWS V14.01,2013-02-05 22:54:00,
2013-02-05 15:59:00,55.0,14.7,29.91,West,266,1.0,4.0,20,0.00,,---,0.00,VWS V14.01,2013-02-05 22:59:00,
2013-02-05 16:04:00,54.5,14.3,29.90,West,266,1.0,5.0,20,0.00,,---,0.00,VWS V14.01,2013-02-05 23:04:00,
2013-02-05 16:09:00,53.9,14.9,29.89,West,266,0.0,3.0,21,0.00,,---,0.00,VWS V14.01,2013-02-05 23:09:00,
2013-02-05 16:14:00,53.9,14.9,29.89,West,266,0.0,5.0,21,0.00,,---,0.00,VWS V14.01,2013-02-05 23:14:00,
2013-02-05 16:19:00,53.0,15.2,29.91,West,265,0.0,6.0,22,0.00,,---,0.00,VWS V14.01,2013-02-05 23:19:00,
2013-02-05 16:24:00,52.5,16.8,29.91,West,266,3.0,7.0,24,0.00,,---,0.00,VWS V14.01,2013-02-05 23:24:00,
2013-02-05 16:29:00,51.4,17.7,29.91,West,266,2.0,6.0,26,0.00,,---,0.00,VWS V14.01,2013-02-05 23:29:00,
2013-02-05 16:34:00,50.6,17.0,29.92,West,266,4.0,7.0,26,0.00,,---,0.00,VWS V14.01,2013-02-05 23:34:00,
2013-02-05 16:40:00,50.1,16.6,29.93,West,266,0.0,4.0,26,0.00,,---,0.00,VWS V14.01,2013-02-05 23:40:00,
2013-02-05 16:45:00,50.0,17.4,29.92,West,266,1.0,6.0,27,0.00,,---,0.00,VWS V14.01,2013-02-05 23:45:00,
2013-02-05 16:50:00,49.6,17.0,29.92,West,266,1.0,5.0,27,0.00,,---,0.00,VWS V14.01,2013-02-05 23:50:00,
2013-02-05 16:55:00,49.3,16.8,29.94,West,266,0.0,4.0,27,0.00,,---,0.00,VWS V14.01,2013-02-05 23:55:00,
2013-02-05 17:00:00,49.0,16.5,29.94,West,266,1.0,2.0,27,0.00,,---,0.00,VWS V14.01,2013-02-06 00:00:00,
2013-02-05 17:05:00,48.1,16.5,29.94,West,266,2.0,4.0,28,0.00,,---,0.00,VWS V14.01,2013-02-06 00:05:00,
2013-02-05 17:10:00,47.6,16.1,29.93,West,265,0.0,2.0,28,0.00,,---,0.00,VWS V14.01,2013-02-06 00:10:00,
2013-02-05 17:15:00,46.7,15.3,29.95,West,265,2.0,5.0,28,0.00,,---,0.00,VWS V14.01,2013-02-06 00:15:00,
2013-02-05 17:20:00,46.9,16.3,29.95,West,265,0.0,2.0,29,0.00,,---,0.00,VWS V14.01,2013-02-06 00:20:00,
2013-02-05 17:25:00,46.7,16.1,29.95,West,266,0.0,0.0,29,0.00,,---,0.00,VWS V14.01,2013-02-06 00:25:00,
2013-02-05 17:30:00,46.2,14.1,29.96,West,266,0.0,0.0,27,0.00,,---,0.00,VWS V14.01,2013-02-06 00:30:00,
2013-02-05 17:35:00,45.5,15.9,29.95,West,265,3.0,5.0,30,0.00,,---,0.00,VWS V14.01,2013-02-06 00:35:00,
2013-02-05 17:40:00,44.3,16.3,29.98,West,266,0.0,4.0,32,0.00,,---,0.00,VWS V14.01,2013-02-06 00:40:00,
2013-02-05 17:45:00,43.1,16.7,30.00,West,266,0.0,1.0,34,0.00,,---,0.00,VWS V14.01,2013-02-06 00:45:00,
2013-02-05 17:50:00,41.6,16.6,30.00,West,266,0.0,4.0,36,0.00,,---,0.00,VWS V14.01,2013-02-06 00:50:00,
2013-02-05 17:55:00,40.6,16.4,30.01,West,265,0.0,0.0,37,0.00,,---,0.00,VWS V14.01,2013-02-06 00:55:00,
2013-02-05 18:00:00,39.8,16.3,30.01,West,265,1.0,1.0,38,0.00,,---,0.00,VWS V14.01,2013-02-06 01:00:00,
2013-02-05 18:05:00,39.1,16.8,30.03,West,265,0.0,3.0,40,0.00,,---,0.00,VWS V14.01,2013-02-06 01:05:00,
2013-02-05 18:10:00,38.5,16.3,30.07,West,266,0.0,1.0,40,0.00,,---,0.00,VWS V14.01,2013-02-06 01:10:00,
2013-02-05 18:15:00,38.3,16.1,30.07,West,265,0.0,2.0,40,0.00,,---,0.00,VWS V14.01,2013-02-06 01:15:00,
2013-02-05 18:20:00,38.5,16.3,30.07,West,266,0.0,2.0,40,0.00,,---,0.00,VWS V14.01,2013-02-06 01:20:00,
2013-02-05 18:25:00,38.4,16.2,30.07,West,265,0.0,0.0,40,0.00,,---,0.00,VWS V14.01,2013-02-06 01:25:00,
2013-02-05 18:30:00,37.7,16.1,30.08,West,266,0.0,0.0,41,0.00,,---,0.00,VWS V14.01,2013-02-06 01:30:00,
2013-02-05 18:35:00,36.9,15.4,30.09,West,266,0.0,0.0,41,0.00,,---,0.00,VWS V14.01,2013-02-06 01:35:00,
2013-02-05 18:40:00,36.4,15.5,30.09,West,266,0.0,0.0,42,0.00,,---,0.00,VWS V14.01,2013-02-06 01:40:00,
2013-02-05 18:45:00,35.9,15.6,30.09,West,265,0.0,0.0,43,0.00,,---,0.00,VWS V14.01,2013-02-06 01:45:00,
2013-02-05 18:50:00,35.2,15.5,30.11,West,266,0.0,0.0,44,0.00,,---,0.00,VWS V14.01,2013-02-06 01:50:00,
2013-02-05 18:55:00,34.5,15.4,30.11,West,265,0.0,0.0,45,0.00,,---,0.00,VWS V14.01,2013-02-06 01:55:00,
2013-02-05 19:00:00,34.2,15.6,30.12,West,265,0.0,0.0,46,0.00,,---,0.00,VWS V14.01,2013-02-06 02:00:00,
2013-02-05 19:06:00,33.5,15.4,30.12,West,265,0.0,1.0,47,0.00,,---,0.00,VWS V14.01,2013-02-06 02:06:00,
2013-02-05 19:11:00,32.9,15.4,30.08,West,266,0.0,1.0,48,0.00,,---,0.00,VWS V14.01,2013-02-06 02:11:00,
2013-02-05 19:16:00,32.5,15.5,30.08,West,266,0.0,0.0,49,0.00,,---,0.00,VWS V14.01,2013-02-06 02:16:00,
2013-02-05 19:21:00,32.4,15.9,30.08,West,266,0.0,1.0,50,0.00,,---,0.00,VWS V14.01,2013-02-06 02:21:00,
2013-02-05 19:26:00,32.4,15.9,30.08,West,265,0.0,1.0,50,0.00,,---,0.00,VWS V14.01,2013-02-06 02:26:00,
2013-02-05 19:31:00,32.6,16.0,30.07,West,266,0.0,0.0,50,0.00,,---,0.00,VWS V14.01,2013-02-06 02:31:00,
2013-02-05 19:36:00,32.8,15.3,30.08,West,265,1.0,1.0,48,0.00,,---,0.00,VWS V14.01,2013-02-06 02:36:00,
2013-02-05 19:41:00,33.3,14.8,30.08,West,266,0.0,0.0,46,0.00,,---,0.00,VWS V14.01,2013-02-06 02:41:00,
2013-02-05 19:46:00,33.8,15.7,30.06,West,265,2.0,2.0,47,0.00,,---,0.00,VWS V14.01,2013-02-06 02:46:00,
2013-02-05 19:51:00,33.3,16.2,30.08,West,266,0.0,0.0,49,0.00,,---,0.00,VWS V14.01,2013-02-06 02:51:00,
2013-02-05 19:56:00,32.1,15.1,30.08,West,266,0.0,1.0,49,0.00,,---,0.00,VWS V14.01,2013-02-06 02:56:00,
2013-02-05 20:01:00,31.1,14.6,30.09,West,266,0.0,0.0,50,0.00,,---,0.00,VWS V14.01,2013-02-06 03:01:00,
2013-02-05 20:06:00,30.5,14.5,30.09,West,266,0.0,0.0,51,0.00,,---,0.00,VWS V14.01,2013-02-06 03:06:00,
2013-02-05 20:11:00,30.1,14.6,30.02,West,266,0.0,0.0,52,0.00,,---,0.00,VWS V14.01,2013-02-06 03:11:00,
2013-02-05 20:16:00,29.9,14.4,30.02,West,265,0.0,0.0,52,0.00,,---,0.00,VWS V14.01,2013-02-06 03:16:00,
2013-02-05 20:21:00,29.7,14.2,30.02,West,266,0.0,0.0,52,0.00,,---,0.00,VWS V14.01,2013-02-06 03:21:00,
2013-02-05 20:26:00,29.3,14.3,30.04,West,265,0.0,0.0,53,0.00,,---,0.00,VWS V14.01,2013-02-06 03:26:00,
2013-02-05 20:31:00,28.5,14.0,30.04,West,266,0.0,0.0,54,0.00,,---,0.00,VWS V14.01,2013-02-06 03:31:00,
2013-02-05 20:36:00,27.9,13.8,30.04,West,265,0.0,0.0,55,0.00,,---,0.00,VWS V14.01,2013-02-06 03:36:00,
2013-02-05 20:41:00,27.5,13.9,30.04,West,266,0.0,0.0,56,0.00,,---,0.00,VWS V14.01,2013-02-06 03:41:00,
2013-02-05 20:46:00,27.3,14.1,30.05,West,265,0.0,0.0,57,0.00,,---,0.00,VWS V14.01,2013-02-06 03:46:00,
2013-02-05 20:51:00,27.1,14.3,30.06,West,266,0.0,0.0,58,0.00,,---,0.00,VWS V14.01,2013-02-06 03:51:00,
2013-02-05 20:56:00,26.9,14.5,30.05,West,266,0.0,0.0,59,0.00,,---,0.00,VWS V14.01,2013-02-06 03:56:00,
2013-02-05 21:01:00,26.7,14.3,30.05,West,266,0.0,0.0,59,0.00,,---,0.00,VWS V14.01,2013-02-06 04:01:00,
2013-02-05 21:06:00,26.5,14.1,30.05,West,265,0.0,0.0,59,0.00,,---,0.00,VWS V14.01,2013-02-06 04:06:00,
2013-02-05 21:11:00,26.3,13.9,30.00,West,266,0.0,0.0,59,0.00,,---,0.00,VWS V14.01,2013-02-06 04:11:00,
2013-02-05 21:16:00,26.1,14.1,30.00,West,265,0.0,0.0,60,0.00,,---,0.00,VWS V14.01,2013-02-06 04:16:00,
2013-02-05 21:21:00,26.0,14.4,30.00,West,266,0.0,0.0,61,0.00,,---,0.00,VWS V14.01,2013-02-06 04:21:00,
2013-02-05 21:26:00,25.8,13.9,30.00,West,266,0.0,0.0,60,0.00,,---,0.00,VWS V14.01,2013-02-06 04:26:00,
2013-02-05 21:31:00,25.5,13.9,30.00,West,266,0.0,1.0,61,0.00,,---,0.00,VWS V14.01,2013-02-06 04:31:00,
2013-02-05 21:36:00,25.2,13.6,30.00,West,265,0.0,0.0,61,0.00,,---,0.00,VWS V14.01,2013-02-06 04:36:00,
2013-02-05 21:41:00,25.4,13.5,29.99,West,266,0.0,0.0,60,0.00,,---,0.00,VWS V14.01,2013-02-06 04:41:00,
2013-02-05 21:46:00,25.5,13.6,29.99,West,266,1.0,1.0,60,0.00,,---,0.00,VWS V14.01,2013-02-06 04:46:00,
2013-02-05 21:51:00,25.7,13.4,29.99,West,266,0.0,1.0,59,0.00,,---,0.00,VWS V14.01,2013-02-06 04:51:00,
2013-02-05 21:57:00,25.6,13.3,29.99,West,266,0.0,0.0,59,0.00,,---,0.00,VWS V14.01,2013-02-06 04:57:00,
2013-02-05 22:00:00,25.6,13.3,29.99,West,266,0.0,0.0,59,0.00,,---,0.00,VWS V14.01,2013-02-06 05:00:00,
2013-02-05 22:05:00,25.4,13.5,29.99,West,266,4.0,4.0,60,0.00,,---,0.00,VWS V14.01,2013-02-06 05:05:00,
2013-02-05 22:06:00,25.3,13.8,29.99,West,266,2.0,6.0,61,0.00,,---,0.00,VWS V14.01,2013-02-06 05:06:00,
2013-02-05 22:11:00,24.8,13.3,29.97,West,266,0.0,2.0,61,0.00,,---,0.00,VWS V14.01,2013-02-06 05:11:00,
2013-02-05 22:16:00,24.4,13.3,29.97,West,265,0.0,2.0,62,0.00,,---,0.00,VWS V14.01,2013-02-06 05:16:00,
2013-02-05 22:21:00,24.2,13.1,29.97,West,266,0.0,1.0,62,0.00,,---,0.00,VWS V14.01,2013-02-06 05:21:00,
2013-02-05 22:26:00,24.1,13.3,29.97,West,266,0.0,1.0,63,0.00,,---,0.00,VWS V14.01,2013-02-06 05:26:00,
2013-02-05 22:31:00,24.0,13.6,29.97,West,265,0.0,2.0,64,0.00,,---,0.00,VWS V14.01,2013-02-06 05:31:00,
2013-02-05 22:36:00,24.0,13.2,29.96,West,265,0.0,0.0,63,0.00,,---,0.00,VWS V14.01,2013-02-06 05:36:00,
2013-02-05 22:41:00,24.0,13.2,29.97,West,266,0.0,2.0,63,0.00,,---,0.00,VWS V14.01,2013-02-06 05:41:00,
2013-02-05 22:46:00,23.9,13.5,29.96,West,266,0.0,0.0,64,0.00,,---,0.00,VWS V14.01,2013-02-06 05:46:00,
2013-02-05 22:51:00,23.7,13.3,29.96,West,265,2.0,6.0,64,0.00,,---,0.00,VWS V14.01,2013-02-06 05:51:00,
2013-02-05 22:56:00,23.6,13.2,29.96,West,266,0.0,2.0,64,0.00,,---,0.00,VWS V14.01,2013-02-06 05:56:00,